Wenatchee, WA
on Tuesday, January 8, 2013

Tuesday
Previous Day Next Day
Daily Summary
 ActualAverageRecord
Temperature
Mean Temperature °F 28°F  
Max Temperature 41°F 33°F 52°F (2009)
Min Temperature 32°F 24°F -1°F (1974)
Degree Days
Heating Degree Days 28 37  
Month to date heating degree days 326 300  
Since 1 July heating degree days 2989 2820  
Cooling Degree Days 0 0  
Month to date cooling degree days 0 0  
Year to date cooling degree days 0 0  
Moisture
Dew Point 30°F   
Average Humidity 89    
Maximum Humidity 100    
Minimum Humidity 75    
Precipitation
Precipitation 0.10 in 0.04 in 0.27 in (1995)
Month to date precipitation 0.80 0.30  
Year to date precipitation 0.80 0.30  
Snow
Snow 0.30 in 0.40 in in ()
Month to date snowfall 8.9 3.1  
Snow Depth 9.00 in   
Wind
Wind Speed 2 mph   
Max Wind Speed 10 mph   
Max Gust Speed mph   
Visibility 3 miles   
Events Fog , Rain , Snow   

Key: T is trace of precipitation, MM is missing value
Source: NWS Daily Summary
Time(PST)TemperatureDew PointHumidity Pressure Visibility Wind DirectionWind SpeedGust SpeedPrecipitationEvents Conditions
12:55 AM 34.0°F 27.0°F 75% 30.09 in 10.0 miles East 5.8 mph - N/A   Clear
1:55 AM 33.1°F 27.0°F 78% 30.10 in 10.0 miles SSW 3.5 mph - N/A   Clear
2:55 AM 30.9°F 26.1°F 82% 30.11 in 10.0 miles NE 4.6 mph - N/A   Clear
3:55 AM 33.1°F 26.1°F 75% 30.12 in 10.0 miles Calm Calm - N/A   Clear
4:55 AM 33.1°F 26.1°F 75% 30.11 in 10.0 miles Calm Calm - N/A   Partly Cloudy
6:55 AM 35.1°F 28.9°F 78% 30.10 in 10.0 miles Calm Calm - N/A   Overcast
7:55 AM 34.0°F 28.0°F 79% 30.10 in 10.0 miles West 3.5 mph - N/A   Overcast
8:55 AM 34.0°F 28.9°F 82% 30.11 in 9.0 miles WNW 3.5 mph - 0.00 in Rain Light Rain
9:55 AM 33.1°F 30.9°F 92% 30.11 in 5.0 miles East 3.5 mph - 0.06 in Rain Light Rain
10:24 AM 32.0°F 30.2°F 93% 30.08 in 0.8 miles South 4.6 mph - 0.01 in Rain Light Rain
10:33 AM 32.0°F 30.2°F 93% 30.07 in 0.2 miles SSE 3.5 mph - 0.02 in Fog , Snow Light Snow
10:55 AM 32.0°F 30.9°F 96% 30.09 in 0.5 miles Calm Calm - 0.03 in Fog , Snow Light Snow
11:05 AM 32.0°F 32.0°F 100% 30.05 in 0.2 miles Calm Calm - 0.01 in Fog , Snow Light Snow
11:13 AM 32.0°F 32.0°F 100% 30.04 in 0.5 miles Calm Calm - 0.01 in Fog , Snow Light Snow
11:28 AM 33.8°F 32.0°F 93% 30.03 in 2.0 miles Calm Calm - 0.01 in   Overcast
11:33 AM 33.8°F 30.2°F 87% 30.02 in 3.0 miles Calm Calm - 0.01 in   Overcast
11:47 AM 33.8°F 30.2°F 87% 30.02 in 5.0 miles Calm Calm - 0.01 in   Overcast
11:55 AM 34.0°F 32.0°F 92% 30.05 in 5.0 miles Calm Calm - 0.01 in   Overcast
12:23 PM 33.8°F 32.0°F 93% 30.00 in 2.0 miles SSE 3.5 mph - 0.00 in   Overcast
12:26 PM 33.8°F 30.2°F 87% 30.00 in 0.8 miles Calm Calm - 0.00 in   Overcast
12:36 PM 33.8°F 32.0°F 93% 29.99 in 0.2 miles Calm Calm - 0.00 in Fog Fog
12:48 PM 33.8°F 32.0°F 93% 29.98 in 1.0 miles Calm Calm - 0.00 in   Overcast
12:51 PM 33.8°F 32.0°F 93% 29.98 in 3.0 miles Calm Calm - 0.00 in   Overcast
12:55 PM 34.0°F 30.9°F 89% 30.01 in 4.0 miles ENE 3.5 mph - 0.00 in   Overcast
1:42 PM 33.8°F 30.2°F 87% 29.97 in 0.2 miles West 3.5 mph - N/A Fog Fog
1:55 PM 32.0°F 30.0°F 92% 30.00 in 0.2 miles West 3.5 mph - N/A Fog Fog
2:16 PM 32.0°F 30.2°F 93% 29.96 in 0.2 miles Calm Calm - 0.00 in Fog Fog
2:24 PM 33.8°F 30.2°F 87% 29.96 in 0.5 miles Calm Calm - 0.00 in Fog , Rain Light Rain
2:35 PM 33.8°F 30.2°F 87% 29.95 in 0.2 miles Calm Calm - 0.00 in Fog Fog
2:55 PM 33.1°F 30.9°F 92% 29.99 in 0.2 miles Calm Calm - 0.00 in Fog , Rain Light Rain
3:05 PM 32.0°F 30.2°F 93% 29.94 in 0.2 miles Calm Calm - 0.00 in Fog , Rain Light Rain
3:21 PM 32.0°F 30.2°F 93% 29.94 in 0.2 miles Calm Calm - 0.00 in Fog Fog
3:55 PM 32.0°F 30.0°F 92% 29.96 in 0.5 miles Calm Calm - 0.00 in Fog Fog
4:25 PM 33.8°F 30.2°F 87% 29.91 in 2.0 miles Calm Calm - N/A   Overcast
4:33 PM 33.8°F 30.2°F 87% 29.91 in 0.8 miles South 3.5 mph - N/A   Overcast
4:41 PM 32.0°F 30.2°F 93% 29.91 in 0.2 miles Calm Calm - N/A Fog Fog
4:55 PM 32.0°F 30.9°F 96% 29.93 in 0.2 miles Calm Calm - N/A Fog Fog
5:55 PM 32.0°F 30.0°F 92% 29.88 in 0.2 miles Calm Calm - N/A Fog Fog
6:14 PM 32.0°F 30.2°F 93% 29.83 in 0.5 miles SSW 4.6 mph - N/A Fog Fog
6:24 PM 32.0°F 30.2°F 93% 29.83 in 0.2 miles Calm Calm - N/A Fog Fog
6:55 PM 32.0°F 30.0°F 92% 29.84 in 0.2 miles Calm Calm - N/A Fog Fog
7:16 PM 32.0°F 30.2°F 93% 29.81 in 0.5 miles Calm Calm - N/A Fog Fog
7:55 PM 32.0°F 30.0°F 92% 29.83 in 0.5 miles Calm Calm - N/A Fog Fog
9:49 PM 33.8°F 30.2°F 87% 29.75 in 2.0 miles East 3.5 mph - N/A   Mostly Cloudy
9:50 PM 33.8°F 30.2°F 87% 29.75 in 3.0 miles East 3.5 mph - N/A   Mostly Cloudy
10:55 PM 32.0°F 30.9°F 96% 29.78 in 3.0 miles WSW 3.5 mph - N/A   Mostly Cloudy
11:10 PM 32.0°F 30.2°F 93% 29.73 in 2.5 miles Calm Calm - N/A   Scattered Clouds
11:55 PM 34.0°F 30.9°F 89% 29.77 in 9.0 miles West 10.4 mph - N/A   Clear
Moon Phase
Jan. 08 Jan. 11 Jan. 18 Jan. 26 Feb. 03
Sunrise:07:46 AM (PST) Moon Rise:04:24 AM (PST)1/8
Sunset:04:28 PM (PST) Moon Set:01:36 PM (PST)1/8

Copyright © 2014 The Weather Underground, Inc.